Home   Weather   Niterói   Past weeks

Flag for Brazil Past Weather in Niterói, Rio de Janeiro, Brazil — Yesterday and Last 2 Weeks

Now
72 °F

Partly sunny.


Feels Like: 71 °F
Forecast: 69 / 78 °F
Wind: 2 mph from Northeast

Location: Rio De Janeiro Airport

Current Time: Apr 24, 2017 at 8:30:38 am

Latest Report: Apr 24, 2017 at 8:00 am


Visibility: N/A

Pressure: 30.12 "Hg

Humidity: 83%

Dew Point: 66 °F

Location of NiteróiLocation

Past Weather in Niterói — Graph

°F

Niterói Temperature Yesterday

Maximum temperature yesterday: 77 °F (at 12:00 pm)
Minimum temperature yesterday: 70 °F (at 2:00 pm)
Average temperature yesterday: 73 °F

High & Low Weather Summary for the Past Weeks

 TemperatureHumidityPressure
High88 °F (Apr 9, 12:00 pm)100% (Apr 13, 4:00 am)30.15 "Hg (Apr 13, 4:00 am)
Low68 °F (Apr 24, 5:00 am)22% (Apr 23, 12:00 pm)29.80 "Hg (Apr 21, 3:00 pm)
Average77 °F78%29.99 "Hg
* Reported Apr 9 7:00 am — Apr 24 7:00 am, Niterói, Weather by CustomWeather, © 2017

Note: Actual official high and low records may vary slightly from our data, if they occured in-between our weather recording intervals... More about our weather records

Advertising

Niterói Weather History for the Previous 24 Hours

Scroll right to see more
 ConditionsComfort  
Time TempWeatherWind HumidityBarometerVisibility
7:00 am
Mon, Apr 24
68 °FPartly sunny.7 mph94%30.12 "HgN/A
6:00 am68 °FPassing clouds.5 mph94%30.09 "HgN/A
5:00 am68 °FPassing clouds.3 mph94%30.07 "HgN/A
1:00 am70 °FPartly cloudy.6 mph88%30.12 "HgN/A
12:00 am70 °FMostly cloudy.8 mph88%30.12 "HgN/A
11:00 pm
Sun, Apr 23
70 °FPassing clouds.7 mph88%30.12 "Hg6 mi
10:00 pm70 °FMostly cloudy.10 mph94%30.15 "HgN/A
9:00 pm70 °FMostly cloudy.6 mph94%30.12 "HgN/A
8:00 pm70 °FMostly cloudy.5 mph94%30.12 "HgN/A
7:15 pm70 °FLight rain. Fog.3 mph94%30.09 "Hg3 mi
7:00 pm70 °FRain. Fog.5 mph94%30.09 "Hg3 mi
6:00 pm70 °FRain. Fog.3 mph94%30.09 "Hg2 mi
5:10 pm72 °FLight rain. Fog.9 mph88%30.07 "Hg2 mi
5:00 pm73 °FLight rain. Fog.7 mph89%30.07 "Hg3 mi
4:00 pm75 °FMostly cloudy.6 mph78%30.04 "Hg6 mi
3:30 pm75 °FMostly cloudy.7 mph78%30.04 "Hg6 mi
3:00 pm75 °FMostly cloudy.7 mph78%30.04 "Hg6 mi
2:00 pm70 °FDrizzle. Fog.12 mph94%N/A3 mi
1:00 pm75 °FFog.6 mph89%30.07 "Hg3 mi
12:30 pm75 °FFog.3 mph89%30.07 "Hg3 mi
12:00 pm77 °FRain showers. Mostly cloudy.5 mph22%N/A6 mi
11:00 am75 °FDrizzle. Partly sunny.1 mph89%N/A3 mi
10:00 am73 °FDrizzle. Partly sunny.5 mph94%N/A3 mi
9:00 am75 °FLight rain. Fog.7 mph89%N/A3 mi
8:32 am73 °FFog.5 mph89%30.09 "Hg3 mi
8:20 am72 °FLight rain. Fog.6 mph94%30.09 "Hg2 mi
8:00 am72 °FLight rain. Broken clouds.3 mph94%30.09 "Hg2 mi
Weather by CustomWeather, © 2017

See weather overviewHow to use our weather pages